Weather History for Sturgeon Bay, WI

Change the Weather History Date:

Wednesday, August 22, 2012

  Actual Average Record
Temperature  
Mean Temperature 68 °F -  
Max Temperature 80 °F 76 °F 96 °F (1968)
Min Temperature 57 °F 56 °F 36 °F (1950)
Cooling Degree Days 4    
Growing Degree Days 18 (Base 50)    
Moisture  
Dew Point 54 °F    
Average Humidity 59    
Maximum Humidity 78    
Minimum Humidity 36    
Precipitation  
Precipitation 0.00 in - - ()
Sea Level Pressure  
Sea Level Pressure 30.04 in    
Wind  
Wind Speed 9 mph (SW)    
Max Wind Speed 17 mph    
Max Gust Speed 21 mph    
Visibility 10 miles    
Events      
Averages and records for this station are not official NWS values.
T = Trace of Precipitation, MM = Missing Value Source: NWS Daily Summary

Daily Weather History Graph

Daily Weather History Graph

Search for Another Location

Airport:

Trip Planner

Search our weather history database for the weather conditions in past years. The results will help you decide how hot, cold, wet, or windy it might be!

Date:

Astronomy

Aug. 22, 2012 Rise Set
Actual Time 6:00 AM CDT 7:43 PM CDT
Civil Twilight 5:29 AM CDT 8:14 PM CDT
Nautical Twilight 4:51 AM CDT 8:51 PM CDT
Astronomical Twilight 4:10 AM CDT 9:32 PM CDT
Moon 11:57 AM CDT (8/22) 10:05 PM CDT (8/22)
Length of Visible Light 14h 44m
Length of Day
13h 42m
Waxing Crescent, 29% of the Moon is Illuminated
Aug 22
Waxing Crescent
Aug 24
First Quarter
Aug 31
Full
Sep 8
Last Quarter
Sep 15
New

Hourly Weather History & Observations

Time (CDT) Temp. Heat Index Dew Point Humidity Pressure Visibility Wind Dir Wind Speed Gust Speed Precip Events Conditions
12:15 AM 64.4 °F - 51.8 °F 64% 30.03 in 10.0 mi SW 9.2 mph - N/A   Clear
12:35 AM 64.4 °F - 51.8 °F 64% 30.03 in 10.0 mi SW 8.1 mph - N/A   Clear
12:55 AM 62.6 °F - 51.8 °F 68% 30.03 in 10.0 mi SW 6.9 mph - N/A   Clear
1:15 AM 62.6 °F - 51.8 °F 68% 30.03 in 10.0 mi SW 8.1 mph - N/A   Clear
1:35 AM 62.6 °F - 51.8 °F 68% 30.03 in 10.0 mi SW 8.1 mph - N/A   Clear
1:55 AM 62.6 °F - 51.8 °F 68% 30.04 in 10.0 mi SW 8.1 mph - N/A   Clear
2:15 AM 62.6 °F - 51.8 °F 68% 30.04 in 10.0 mi SW 8.1 mph - N/A   Clear
2:35 AM 62.6 °F - 51.8 °F 68% 30.04 in 10.0 mi SW 6.9 mph - N/A   Clear
2:55 AM 60.8 °F - 51.8 °F 72% 30.04 in 10.0 mi SW 6.9 mph - N/A   Clear
3:15 AM 62.6 °F - 51.8 °F 68% 30.05 in 10.0 mi SW 8.1 mph - N/A   Clear
3:35 AM 62.6 °F - 51.8 °F 68% 30.04 in 10.0 mi SW 6.9 mph - N/A   Clear
4:15 AM 62.6 °F - 51.8 °F 68% 30.05 in 10.0 mi SW 5.8 mph - N/A   Clear
4:35 AM 62.6 °F - 51.8 °F 68% 30.05 in 10.0 mi SW 6.9 mph - N/A   Clear
4:55 AM 60.8 °F - 51.8 °F 72% 30.05 in 10.0 mi SW 5.8 mph - N/A   Clear
5:15 AM 60.8 °F - 51.8 °F 72% 30.05 in 10.0 mi SW 5.8 mph - N/A   Clear
5:35 AM 60.8 °F - 51.8 °F 72% 30.05 in 10.0 mi SW 5.8 mph - N/A   Clear
5:55 AM 59.0 °F - 51.8 °F 77% 30.06 in 10.0 mi SW 6.9 mph - N/A   Clear
6:15 AM 59.0 °F - 50.0 °F 72% 30.06 in 10.0 mi SSW 5.8 mph - N/A   Clear
6:35 AM 57.2 °F - 50.0 °F 77% 30.06 in 10.0 mi SSW 5.8 mph - N/A   Clear
6:55 AM 59.0 °F - 51.8 °F 77% 30.07 in 10.0 mi SW 5.8 mph - N/A   Clear
7:15 AM 62.6 °F - 53.6 °F 72% 30.07 in 10.0 mi SW 6.9 mph - N/A   Clear
7:35 AM 62.6 °F - 53.6 °F 72% 30.07 in 10.0 mi SW 5.8 mph - N/A   Clear
7:55 AM 64.4 °F - 53.6 °F 68% 30.07 in 10.0 mi SW 6.9 mph - N/A   Clear
8:15 AM 66.2 °F - 53.6 °F 64% 30.07 in 10.0 mi SW 8.1 mph - N/A   Clear
8:35 AM 68.0 °F - 53.6 °F 60% 30.07 in 10.0 mi WSW 9.2 mph - N/A   Clear
8:55 AM 69.8 °F - 53.6 °F 56% 30.07 in 10.0 mi WSW 12.7 mph - N/A   Clear
9:15 AM 71.6 °F - 53.6 °F 53% 30.07 in 10.0 mi WSW 10.4 mph - N/A   Clear
9:35 AM 71.6 °F - 51.8 °F 50% 30.07 in 10.0 mi WSW 12.7 mph 18.4 mph N/A   Clear
9:55 AM 73.4 °F - 51.8 °F 47% 30.07 in 10.0 mi WSW 13.8 mph 18.4 mph N/A   Clear
10:15 AM 73.4 °F - 51.8 °F 47% 30.07 in 10.0 mi West 12.7 mph 18.4 mph N/A   Clear
10:35 AM 75.2 °F - 51.8 °F 44% 30.07 in 10.0 mi WSW 13.8 mph 18.4 mph N/A   Clear
10:55 AM 75.2 °F - 51.8 °F 44% 30.07 in 10.0 mi West 12.7 mph 19.6 mph N/A   Clear
11:15 AM 75.2 °F - 51.8 °F 44% 30.07 in 10.0 mi WSW 17.3 mph - N/A   Clear
11:35 AM 75.2 °F - 51.8 °F 44% 30.07 in 10.0 mi WSW 15.0 mph - N/A   Clear
11:55 AM 77.0 °F - 51.8 °F 41% 30.07 in 10.0 mi WSW 12.7 mph 20.7 mph N/A   Clear
12:15 PM 77.0 °F - 51.8 °F 41% 30.06 in 10.0 mi SW 15.0 mph - N/A   Clear
12:35 PM 78.8 °F - 51.8 °F 39% 30.06 in 10.0 mi WSW 15.0 mph - N/A   Clear
12:55 PM 78.8 °F - 51.8 °F 39% 30.06 in 10.0 mi West 15.0 mph 20.7 mph N/A   Clear
1:15 PM 78.8 °F - 51.8 °F 39% 30.05 in 10.0 mi WSW 15.0 mph 19.6 mph N/A   Clear
1:35 PM 78.8 °F - 50.0 °F 36% 30.05 in 10.0 mi West 12.7 mph 17.3 mph N/A   Clear
1:55 PM 78.8 °F - 50.0 °F 36% 30.04 in 10.0 mi West 16.1 mph 19.6 mph N/A   Clear
2:15 PM 80.6 °F - 51.8 °F 37% 30.04 in 10.0 mi WSW 12.7 mph - N/A   Clear
2:55 PM 80.6 °F 80.3 °F 53.6 °F 39% 30.03 in 10.0 mi SW 9.2 mph 16.1 mph N/A   Clear
3:15 PM 80.6 °F - 51.8 °F 37% 30.02 in 10.0 mi WSW 11.5 mph 18.4 mph N/A   Clear
3:35 PM 80.6 °F - 51.8 °F 37% 30.02 in 10.0 mi South 13.8 mph 19.6 mph N/A   Clear
3:55 PM 80.6 °F - 51.8 °F 37% 30.02 in 10.0 mi SSW 13.8 mph - N/A   Clear
4:15 PM 80.6 °F - 51.8 °F 37% 30.02 in 10.0 mi SSW 11.5 mph 17.3 mph N/A   Clear
4:35 PM 80.6 °F - 51.8 °F 37% 30.02 in 10.0 mi SSW 12.7 mph - N/A   Clear
4:55 PM 80.6 °F - 51.8 °F 37% 30.02 in 10.0 mi SW 9.2 mph - N/A   Clear
5:15 PM 77.0 °F - 57.2 °F 50% 30.02 in 10.0 mi South 12.7 mph - N/A   Clear
5:35 PM 77.0 °F - 59.0 °F 54% 30.02 in 10.0 mi South 9.2 mph - N/A   Clear
5:55 PM 75.2 °F - 59.0 °F 57% 30.02 in 10.0 mi South 11.5 mph - N/A   Clear
6:15 PM 75.2 °F - 60.8 °F 61% 30.01 in 10.0 mi South 11.5 mph - N/A   Clear
6:35 PM 73.4 °F - 60.8 °F 65% 30.01 in 10.0 mi South 10.4 mph - N/A   Clear
6:55 PM 73.4 °F - 59.0 °F 61% 30.01 in 10.0 mi South 10.4 mph - N/A   Clear
7:15 PM 71.6 °F - 59.0 °F 64% 30.01 in 10.0 mi South 10.4 mph - N/A   Clear
7:35 PM 69.8 °F - 59.0 °F 68% 30.02 in 10.0 mi South 8.1 mph - N/A   Clear
7:55 PM 69.8 °F - 59.0 °F 68% 30.02 in 10.0 mi South 8.1 mph - N/A   Clear
8:15 PM 66.2 °F - 57.2 °F 73% 30.02 in 10.0 mi South 8.1 mph - N/A   Clear
8:35 PM 66.2 °F - 57.2 °F 73% 30.02 in 10.0 mi South 8.1 mph - N/A   Clear
8:55 PM 66.2 °F - 57.2 °F 73% 30.03 in 10.0 mi South 9.2 mph - N/A   Clear
9:15 PM 66.2 °F - 55.4 °F 68% 30.03 in 10.0 mi South 9.2 mph - N/A   Clear
9:35 PM 66.2 °F - 55.4 °F 68% 30.03 in 10.0 mi South 9.2 mph - N/A   Clear
9:55 PM 66.2 °F - 55.4 °F 68% 30.03 in 10.0 mi South 9.2 mph - N/A   Clear
10:15 PM 66.2 °F - 55.4 °F 68% 30.02 in 10.0 mi South 10.4 mph - N/A   Clear
10:35 PM 66.2 °F - 57.2 °F 73% 30.02 in 10.0 mi South 9.2 mph - N/A   Clear
11:15 PM 66.2 °F - 57.2 °F 73% 30.03 in 10.0 mi SSW 9.2 mph - N/A   Clear
11:35 PM 66.2 °F - 57.2 °F 73% 30.03 in 10.0 mi South 10.4 mph - N/A   Clear
11:55 PM 66.2 °F - 59.0 °F 78% 30.02 in 10.0 mi South 9.2 mph - N/A   Clear